CW1768 Weather Reports


time (UTC)temp
C
wind
direction
speed
KPH
gust
KPH
rain 1hr
cm
rain 24hr
cm
rain mn
cm
humidity
%
barometer
mb
20260507212059 15 338 3.2 9.7 0.00 0.10 0.00 22 1004.7
20260507211019 15 225 3.2 11.3 0.00 0.10 0.00 22 1004.7
20260507210039 15 225 6.4 14.5 0.00 0.10 0.00 23 1004.6
20260507205019 15 225 4.8 14.5 0.00 0.10 0.00 21 1004.6
20260507204020 15 225 3.2 14.5 0.00 0.10 0.00 24 1004.5
20260507203019 15 225 6.4 14.5 0.00 0.13 0.00 24 1004.6
20260507202039 15 248 4.8 12.9 0.00 0.15 0.00 24 1004.6
20260507201019 15 225 6.4 14.5 0.00 0.18 0.00 23 1004.6
20260507200039 15 225 6.4 12.9 0.00 0.18 0.00 23 1004.6
20260507195019 15 248 6.4 16.1 0.00 0.18 0.00 22 1004.8
20260507194019 15 225 4.8 12.9 0.00 0.20 0.00 25 1004.6
20260507193019 15 248 6.4 17.7 0.00 0.20 0.00 24 1004.7
20260507192019 15 270 4.8 14.5 0.00 0.20 0.00 24 1004.7
20260507191019 15 248 6.4 14.5 0.00 0.20 0.00 24 1004.8
20260507190019 15 248 6.4 16.1 0.00 0.23 0.00 26 1004.9
20260507185019 14 225 4.8 11.3 0.00 0.25 0.00 29 1004.9
20260507184019 14 225 4.8 12.9 0.00 0.28 0.00 30 1005.0
20260507183019 14 270 3.2 14.5 0.00 0.33 0.00 27 1005.0
20260507182019 15 225 6.4 16.1 0.00 0.36 0.00 29 1005.1
20260507181039 15 248 4.8 17.7 0.00 0.38 0.00 29 1005.0
20260507180019 15 225 6.4 14.5 0.00 0.41 0.00 28 1005.0
20260507175019 15 225 8.0 19.3 0.00 0.43 0.00 32 1005.0
20260507174019 15 248 6.4 14.5 0.00 0.43 0.00 27 1005.3
20260507173019 15 293 4.8 17.7 0.00 0.43 0.00 30 1005.4
20260507172019 14 248 4.8 14.5 0.00 0.43 0.00 30 1005.4
20260507171039 14 225 6.4 16.1 0.00 0.43 0.00 35 1005.6
20260507170018 14 293 4.8 14.5 0.00 0.43 0.00 38 1005.5
20260507165038 13 225 4.8 19.3 0.00 0.43 0.00 39 1005.4
20260507164019 13 225 4.8 12.9 0.00 0.43 0.00 41 1005.8
20260507163019 13 248 4.8 12.9 0.00 0.43 0.00 46 1006.0
20260507162019 12 225 4.8 11.3 0.00 0.43 0.00 44 1006.1
20260507161018 13 270 4.8 12.9 0.00 0.43 0.00 45 1006.1
20260507160039 12 248 3.2 9.7 0.00 0.43 0.00 46 1006.1
20260507155019 13 270 4.8 14.5 0.00 0.43 0.00 45 1006.3
20260507154019 13 270 3.2 16.1 0.00 0.46 0.00 44 1006.4
20260507153018 13 225 6.4 16.1 0.00 0.46 0.00 45 1006.6
20260507152018 13 248 4.8 12.9 0.00 0.46 0.00 50 1006.6
20260507151019 13 248 4.8 14.5 0.00 0.46 0.00 49 1006.6
20260507150019 13 293 3.2 12.9 0.00 0.46 0.00 49 1006.7
20260507145018 12 248 4.8 9.7 0.00 0.46 0.00 52 1006.7
20260507144038 12 248 6.4 20.9 0.00 0.46 0.00 50 1006.6
20260507143019 12 225 6.4 12.9 0.00 0.46 0.00 53 1006.4
20260507142019 12 203 4.8 16.1 0.00 0.46 0.00 52 1006.6
20260507141019 12 225 6.4 14.5 0.00 0.46 0.00 55 1006.6
20260507140019 12 248 4.8 12.9 0.00 0.46 0.00 53 1006.7
20260507135038 11 270 4.8 12.9 0.00 0.46 0.00 54 1006.6
20260507134018 11 248 3.2 11.3 0.00 0.46 0.00 56 1006.6
20260507133058 11 270 3.2 9.7 0.00 0.46 0.00 57 1006.7
20260507132018 10 293 3.2 9.7 0.00 0.46 0.00 60 1006.9
20260507131018 10 248 4.8 9.7 0.00 0.46 0.00 59 1006.8
20260507130018 10 225 3.2 8.0 0.00 0.46 0.00 62 1006.7
20260507125039 10 248 3.2 9.7 0.00 0.46 0.00 62 1006.9
20260507124038 10 270 3.2 8.0 0.00 0.46 0.00 64 1006.7
20260507123018 9 248 1.6 6.4 0.00 0.46 0.00 65 1006.7
20260507122018 9 293 3.2 9.7 0.00 0.46 0.00 65 1006.8
20260507121018 8 270 3.2 6.4 0.00 0.46 0.00 66 1006.8
20260507120019 8 338 3.2 8.0 0.00 0.46 0.00 68 1006.9
20260507115058 8 0.0 6.4 0.00 0.46 0.00 69 1006.9
20260507114018 7 225 3.2 6.4 0.00 0.46 0.00 71 1006.9
20260507113018 7 270 1.6 6.4 0.00 0.46 0.00 72 1006.7
20260507112018 7 270 1.6 4.8 0.00 0.46 0.00 73 1006.7
20260507111039 7 0.0 3.2 0.00 0.46 0.00 73 1006.6
20260507110059 7 0.0 0.0 0.00 0.46 0.00 74 1006.5
20260507105038 7 0.0 3.2 0.00 0.46 0.00 74 1006.7
20260507104018 7 0 1.6 8.0 0.00 0.46 0.00 74 1006.6
20260507103038 7 0.0 4.8 0.00 0.46 0.00 74 1006.6
20260507102020 7 0 1.6 8.0 0.00 0.46 0.00 74 1006.9
20260507101021 7 0.0 3.2 0.00 0.46 0.00 74 1006.8
20260507100020 7 0.0 3.2 0.00 0.46 0.00 74 1007.0
20260507095020 7 0.0 6.4 0.00 0.46 0.00 74 1006.9
20260507094038 7 270 1.6 4.8 0.00 0.46 0.00 74 1006.7
20260507093018 7 0.0 3.2 0.00 0.46 0.00 74 1006.7
20260507092018 7 0.0 3.2 0.00 0.46 0.00 74 1006.7
20260507091020 7 338 1.6 4.8 0.00 0.46 0.00 74 1006.2
20260507090020 7 338 1.6 4.8 0.00 0.46 0.00 74 1006.0
20260507085018 7 0 1.6 8.0 0.00 0.46 0.00 74 1006.2
20260507084018 7 0 1.6 3.2 0.00 0.46 0.00 73 1006.6
20260507083018 7 338 1.6 6.4 0.00 0.46 0.00 73 1006.1
20260507082040 7 338 1.6 4.8 0.00 0.46 0.00 73 1006.4
20260507081020 7 0 1.6 6.4 0.00 0.46 0.00 73 1006.1
20260507080040 7 158 1.6 6.4 0.00 0.46 0.00 73 1005.9
20260507075020 7 293 1.6 8.0 0.00 0.46 0.00 73 1005.6
20260507074040 7 293 3.2 6.4 0.00 0.46 0.00 72 1005.8
20260507073020 7 0 3.2 9.7 0.00 0.46 0.00 72 1005.5
20260507072020 8 0 1.6 9.7 0.00 0.46 0.00 72 1005.6
20260507071020 8 225 3.2 8.0 0.00 0.46 0.00 72 1005.4
20260507070040 8 338 3.2 12.9 0.00 0.46 0.00 72 1005.3
20260507065020 8 293 3.2 12.9 0.00 0.46 0.00 72 1005.5
20260507064018 8 270 3.2 12.9 0.00 0.46 0.00 72 1005.4
20260507063040 8 270 1.6 9.7 0.00 0.46 0.00 73 1005.0
20260507062020 8 248 3.2 9.7 0.00 0.46 0.00 73 1005.3
20260507061020 8 248 3.2 8.0 0.00 0.46 0.00 73 1005.3
20260507060020 8 225 3.2 8.0 0.00 0.46 0.00 73 1005.1
20260507055020 8 248 1.6 6.4 0.00 0.46 0.00 73 1005.1
20260507054019 8 248 3.2 8.0 0.00 0.46 0.00 73 1004.9
20260507053020 8 270 3.2 9.7 0.00 0.46 0.00 73 1004.9
20260507052019 8 270 3.2 11.3 0.00 0.46 0.00 74 1005.0
20260507051020 8 270 3.2 9.7 0.00 0.46 0.00 74 1004.9
20260507050020 8 248 3.2 11.3 0.00 0.46 0.00 74 1004.8
20260507045039 9 248 4.8 14.5 0.00 0.46 0.00 74 1005.2
20260507044019 9 270 3.2 11.3 0.00 0.46 0.00 74 1005.1
20260507043019 9 315 3.2 11.3 0.05 0.46 0.00 74 1004.9
20260507042019 9 270 3.2 12.9 0.05 0.46 0.00 74 1004.8
20260507041200 10 270 4.8 11.3 0.05 0.46 0.00 73 1004.7
20260507040019 10 270 3.2 11.3 0.05 0.46 0.46 74 1004.8
20260507035019 10 270 3.2 16.1 0.05 0.46 0.46 74 1004.7
20260507034020 11 315 3.2 9.7 0.05 0.46 0.46 74 1004.9
20260507033019 11 225 4.8 14.5 0.00 0.41 0.41 73 1005.0
20260507032020 11 248 6.4 17.7 0.00 0.41 0.41 75 1005.1
20260507031020 11 248 3.2 12.9 0.03 0.41 0.41 77 1004.8
20260507030020 12 248 3.2 12.9 0.03 0.41 0.41 77 1004.6
20260507025019 12 248 3.2 12.9 0.03 0.41 0.41 77 1004.4
20260507024020 12 248 3.2 11.3 0.03 0.41 0.41 77 1004.3
20260507023020 12 248 3.2 11.3 0.03 0.41 0.41 77 1004.5
20260507022020 13 248 3.2 9.7 0.03 0.41 0.41 77 1004.5
20260507021019 13 270 3.2 11.3 0.00 0.38 0.38 77 1004.5
20260507020019 13 248 1.6 6.4 0.00 0.38 0.38 76 1004.6
20260507015019 14 248 3.2 11.3 0.00 0.38 0.38 79 1004.5
20260507014019 15 203 3.2 6.4 0.00 0.38 0.38 83 1004.4
20260507013020 15 203 4.8 8.0 0.00 0.38 0.38 83 1004.2
20260507012020 15 203 6.4 11.3 0.00 0.38 0.38 83 1004.3
20260507011019 15 180 6.4 11.3 0.00 0.38 0.38 83 1004.2
20260507010039 15 180 8.0 17.7 0.00 0.38 0.38 83 1004.1
20260507005019 15 180 8.0 14.5 0.00 0.38 0.38 83 1004.2
20260507004019 15 180 9.7 19.3 0.00 0.38 0.38 83 1004.2
20260507003020 15 180 11.3 17.7 0.00 0.38 0.38 83 1004.0
20260507002020 14 180 12.9 19.3 0.00 0.38 0.38 83 1003.9
20260507001019 14 180 12.9 20.9 0.00 0.38 0.38 83 1003.8
20260507000019 14 180 9.7 16.1 0.00 0.38 0.38 83 1003.9
20260506235019 15 180 11.3 17.7 0.00 0.38 0.38 83 1004.0
20260506234019 15 180 11.3 19.3 0.00 0.38 0.38 83 1004.0
20260506233019 15 180 12.9 20.9 0.00 0.38 0.38 82 1003.9
20260506232019 15 180 12.9 17.7 0.00 0.38 0.38 83 1003.9
20260506231019 15 180 12.9 19.3 0.00 0.38 0.38 82 1004.0
20260506230019 15 180 11.3 24.1 0.00 0.38 0.38 82 1004.0
20260506225059 15 180 9.7 17.7 0.00 0.38 0.38 83 1004.1
20260506224019 15 180 11.3 19.3 0.00 0.38 0.38 83 1003.9
20260506223019 15 180 12.9 17.7 0.03 0.38 0.38 83 1004.1
20260506222019 15 180 11.3 19.3 0.03 0.38 0.38 83 1004.1
20260506221019 15 180 11.3 17.7 0.03 0.38 0.38 83 1004.2
20260506220039 15 180 14.5 22.5 0.03 0.38 0.38 83 1004.3
20260506215019 15 180 12.9 20.9 0.03 0.38 0.38 83 1004.4
20260506214028 15 180 12.9 19.3 0.03 0.38 0.38 83 1004.5
20260506213119 15 180 12.9 20.9 0.03 0.36 0.36 83 1004.6